This demonstration page uses our WeatherBlox Daily Observations layout. Learn more.

Left ArrowRight Arrow

Hourly Observations for May 20, 2018

Temp ( °F °C ) Dew Point ( °F °C ) Humidity (%) Winds ( mph kmh ) Pressure ( in mb ) Visibility ( mi km ) Precip ( " mm )
12:51 am 00:51 Clear 70 21.1 16 -8.9 12 12 WNW 9 15 29.71 1006 10 16 0.00 0.00
1:51 am 01:51 Clear 66 18.9 16 -8.9 14 14 NNW 9 15 29.72 1006 10 16 0.00 0.00
2:51 am 02:51 Clear 67 19.4 17 -8.3 15 15 NNW 8 13 29.72 1007 10 16 0.00 0.00
3:51 am 03:51 Clear 63 17.2 17 -8.3 17 17 S 7 11 29.75 1007 10 16 0.00 0.00
4:51 am 04:51 Clear 56 13.3 15 -9.4 20 20 E 5 7 29.77 1008 10 16 0.00 0.00
5:51 am 05:51 Sunny 57 13.9 15 -9.4 19 19 E 3 6 29.80 1009 10 16 0.00 0.00
6:51 am 06:51 Sunny 64 17.8 15 -9.4 15 15 SE 6 9 29.81 1009 10 16 0.00 0.00
7:51 am 07:51 Sunny 72 22.2 16 -8.9 12 12 SE 3 6 29.80 1009 10 16 0.00 0.00
8:51 am 08:51 Sunny 77 25 21 -6.1 12 12 Calm 29.80 1009 10 16 0.00 0.00
9:51 am 09:51 Sunny 81 27.2 20 -6.7 10 10 VRB 3 6 29.80 1009 10 16 0.00 0.00
10:51 am 10:51 Sunny 85 29.4 14 -10 7 7 undefined N/A 29.79 1009 10 16 0.00 0.00
11:51 am 11:51 Sunny 87 30.6 13 -10.6 6 6 VRB 5 7 29.76 1008 10 16 0.00 0.00
12:51 pm 12:51 Sunny 89 31.7 11 -11.7 5 5 Calm 29.73 1007 10 16 0.00 0.00
1:51 pm 13:51 Sunny 90 32.2 4 -15.6 4 4 S 6 9 29.71 1006 10 16 0.00 0.00
2:51 pm 14:51 Sunny 93 33.9 -7 -21.7 2 2 SSW 14 22 29.67 1005 10 16 0.00 0.00
3:51 pm 15:51 Sunny 92 33.3 -4 -20 2 2 undefined N/A 29.65 1004 10 16 0.00 0.00
4:51 pm 16:51 Sunny 93 33.9 1 -17.2 3 3 SSW 13 20 29.64 1004 10 16 0.00 0.00
5:51 pm 17:51 Sunny 92 33.3 -1 -18.3 3 3 S 8 13 29.64 1004 10 16 0.00 0.00
6:51 pm 18:51 Sunny 89 31.7 2 -16.7 3 3 SW 8 13 29.63 1003 10 16 0.00 0.00
7:51 pm 19:51 Clear 84 28.9 7 -13.9 5 5 WNW 9 15 29.64 1004 10 16 0.00 0.00
8:51 pm 20:51 Clear 81 27.2 11 -11.7 7 7 NW 10 17 29.65 1004 10 16 0.00 0.00
9:51 pm 21:51 Clear 78 25.6 13 -10.6 8 8 NNW 10 17 29.66 1005 10 16 0.00 0.00
10:51 pm 22:51 Clear 73 22.8 15 -9.4 11 11 WSW 6 9 29.69 1005 10 16 0.00 0.00
11:51 pm 23:51 Clear 72 22.2 16 -8.9 12 12 NNW 5 7 29.68 1005 10 16 0.00 0.00

Powered by AerisWeather